Aeroporto :
LOGIN :

Iscrizione | Disclaimer

   EN    FR    IT 

 










Sommario :    VFR   VFR Marginale   IFR   IFR Intensivo   IFR Molto Intensivo
Visibilità : 
Base nubi : 
>= 8 km
>= 3000ft
5 / 8 km
1000 / 3000 ft
1500m / 5 km
500 / 1000 ft
800 / 1500m
200 / 500 ft
< 800m
< 200 ft
Simboli :   Temporali  Nebbia  Neve Forte  Precipitazioni Forti  Vento > 20 kt
SIGMETs :   Varie  Temporali  Ghiacco  Turbolenza  Onda orograficha  Ceneri Vulcaniche







- Altitudine del aeroporto : 1400 ft


LSME - Luzern Emmen

ULTIMO METAR :
  • 190250Z AUTO 00000KT 9999NDV NCD 00/M02 Q1022 RMK

METARs OBSOLETI :
  • 190220Z AUTO 00000KT 9999NDV NCD M01/M03 Q1022 RMK
  • 190150Z AUTO VRB01KT 9999NDV NCD M00/M02 Q1022 RMK
  • 190120Z AUTO 00000KT 9999NDV NCD M01/M02 Q1022 RMK
  • 190050Z AUTO 00000KT 9999NDV NCD M00/M02 Q1022 RMK
  • 190020Z AUTO 00000KT 9999NDV NCD 00/M02 Q1022 RMK

Previsioni scadute.
Nessun NOTAM noto per questo aeroporto.



MetMap, La meteo Aeronautica in un colpo d'occhio ! - Copyright ORBIFLY Dicembre 2007 - Disclaimer

ORBIFLY MET'MAP TEAM :

Programmazione e sviluppo : Alexandra Zaïnal
Concezione e sviluppo : Baudouin d'Aumeries
Co-Programmazione e sviluppo : Marc-Olivier Méhu
Supporto tecnico e logistico : Manuel Goepfert
Aiuto per la traduzione : Arnaldo La Scala

Contatto : metmap@orbifly.com




FONTI E CREDITI :

   NOAA